User: anonymous   Login
Location: Theydon Bois
(51.6750°N, 0.1050°E)
Time: 13:09:36
(UTC+00:00)
Language:

SJ-6B - Orbit

View from above orbital plane
View from above orbital plane
View from above satellite
View from above satellite

Ground track
Ground track

The orbit data is extracted from the following two-line orbital elements,

1 28415U 04035C   17346.71785871 +.00000404 +00000-0 +31210-4 0  9996
2 28415 097.7290 016.6410 0050932 234.2586 125.3899 15.06381040725451
Epoch (UTC): 12 December 2017 17:13:42
Eccentricity: 0.0050932
inclination: 97.7290°
perigee height: 512 km
apogee height: 582 km
right ascension of ascending node: 16.6410°
argument of perigee: 234.2586°
revolutions per day: 15.06381040
mean anomaly at epoch: 125.3899°
orbit number at epoch: 72545

The dashed part of the orbit path shows where the satellite is in the earth's shadow,  

DLR